Time,TemperatureF,DewpointF,PressureIn,WindDirection,WindDirectionDegrees,WindSpeedMPH,WindSpeedGustMPH,Humidity,HourlyPrecipIn,Conditions,Clouds,dailyrainin,SolarRadiationWatts/m^2,SoftwareType,DateUTC
2013-12-30 00:02:00,53.0,52.0,-100.00,NW,322,5.0,12.0,95,0.00,,,0.61,0.000000,,2013-12-30 05:02:00,
2013-12-30 00:43:00,52.0,49.0,-100.00,WNW,295,4.0,9.0,91,0.00,,,0.61,0.000000,,2013-12-30 05:43:00,
2013-12-30 00:53:00,52.0,49.0,-100.00,WNW,295,4.0,9.0,91,0.00,,,0.61,0.000000,,2013-12-30 05:53:00,
2013-12-30 01:02:00,52.0,49.0,-100.00,WNW,295,4.0,9.0,91,0.00,,,0.61,0.000000,,2013-12-30 06:02:00,
2013-12-30 01:43:00,52.0,48.0,-100.00,WNW,289,3.0,7.0,87,0.00,,,0.61,0.000000,,2013-12-30 06:43:00,
2013-12-30 01:53:00,52.0,48.0,-100.00,WNW,289,3.0,7.0,87,0.00,,,0.61,0.000000,,2013-12-30 06:53:00,
2013-12-30 02:02:00,52.0,48.0,-100.00,WNW,289,3.0,7.0,87,0.00,,,0.61,0.000000,,2013-12-30 07:02:00,
2013-12-30 02:42:00,49.0,46.0,-100.00,WNW,287,4.0,6.0,89,0.00,,,0.61,0.000000,,2013-12-30 07:42:00,
2013-12-30 02:52:00,49.0,46.0,-100.00,WNW,287,4.0,6.0,89,0.00,,,0.61,0.000000,,2013-12-30 07:52:00,
2013-12-30 03:02:00,49.0,46.0,-100.00,WNW,287,4.0,6.0,89,0.00,,,0.61,0.000000,,2013-12-30 08:02:00,
2013-12-30 03:42:00,46.0,45.0,-100.00,WSW,244,1.0,5.0,95,0.00,,,0.61,0.000000,,2013-12-30 08:42:00,
2013-12-30 03:52:00,46.0,45.0,-100.00,WSW,244,1.0,5.0,95,0.00,,,0.61,0.000000,,2013-12-30 08:52:00,
2013-12-30 04:03:00,46.0,45.0,-100.00,WSW,244,1.0,5.0,95,0.00,,,0.61,0.000000,,2013-12-30 09:03:00,
2013-12-30 04:43:00,45.0,44.0,-100.00,West,263,2.0,5.0,96,0.00,,,0.61,0.000000,,2013-12-30 09:43:00,
2013-12-30 04:53:00,45.0,44.0,-100.00,West,263,2.0,5.0,96,0.00,,,0.61,0.000000,,2013-12-30 09:53:00,
2013-12-30 05:03:00,45.0,44.0,-100.00,West,263,2.0,5.0,96,0.00,,,0.61,0.000000,,2013-12-30 10:03:00,
2013-12-30 05:43:00,44.0,43.0,-100.00,WNW,286,3.0,4.0,97,0.00,,,0.61,0.000000,,2013-12-30 10:43:00,
2013-12-30 05:53:00,44.0,43.0,-100.00,WNW,286,3.0,4.0,97,0.00,,,0.61,0.000000,,2013-12-30 10:53:00,
2013-12-30 06:02:00,44.0,43.0,-100.00,WNW,286,3.0,4.0,97,0.00,,,0.61,0.000000,,2013-12-30 11:02:00,
2013-12-30 06:43:00,43.0,42.0,-100.00,WSW,258,2.0,4.0,97,0.00,,,0.61,0.000000,,2013-12-30 11:43:00,
2013-12-30 06:53:00,43.0,42.0,-100.00,WSW,258,2.0,4.0,97,0.00,,,0.61,0.000000,,2013-12-30 11:53:00,
2013-12-30 07:02:00,43.0,42.0,-100.00,WSW,258,2.0,4.0,97,0.00,,,0.61,0.000000,,2013-12-30 12:02:00,
2013-12-30 07:42:00,43.0,42.0,-100.00,West,272,3.0,6.0,97,0.00,,,0.60,0.000000,,2013-12-30 12:42:00,
2013-12-30 07:52:00,43.0,42.0,-100.00,West,272,3.0,6.0,97,0.00,,,0.60,0.000000,,2013-12-30 12:52:00,
2013-12-30 08:01:00,43.0,42.0,-100.00,West,272,3.0,6.0,97,0.00,,,0.60,0.000000,,2013-12-30 13:01:00,
2013-12-30 08:42:00,43.0,42.0,-100.00,WSW,258,3.0,4.0,97,0.00,,,0.18,12.000000,,2013-12-30 13:42:00,
2013-12-30 08:52:00,43.0,42.0,-100.00,WSW,258,3.0,4.0,97,0.00,,,0.18,12.000000,,2013-12-30 13:52:00,
2013-12-30 09:02:00,43.0,42.0,-100.00,WSW,258,3.0,4.0,97,0.00,,,0.18,12.000000,,2013-12-30 14:02:00,
2013-12-30 09:42:00,48.0,47.0,-100.00,WNW,299,3.0,6.0,96,0.00,,,0.01,100.000000,,2013-12-30 14:42:00,
2013-12-30 09:52:00,48.0,47.0,-100.00,WNW,299,3.0,6.0,96,0.00,,,0.01,100.000000,,2013-12-30 14:52:00,
2013-12-30 10:02:00,48.0,47.0,-100.00,WNW,299,3.0,6.0,96,0.00,,,0.01,100.000000,,2013-12-30 15:02:00,
2013-12-30 10:44:00,54.0,48.0,-100.00,NW,304,3.0,7.0,79,0.00,,,0.00,335.000000,,2013-12-30 15:44:00,
2013-12-30 10:54:00,54.0,48.0,-100.00,NW,304,3.0,7.0,79,0.00,,,0.00,335.000000,,2013-12-30 15:54:00,
2013-12-30 11:03:00,54.0,48.0,-100.00,NW,304,3.0,7.0,79,0.00,,,0.00,335.000000,,2013-12-30 16:03:00,
2013-12-30 11:43:00,59.0,46.0,-100.00,NW,318,4.0,10.0,63,0.00,,,0.00,527.000000,,2013-12-30 16:43:00,
2013-12-30 11:53:00,59.0,46.0,-100.00,NW,318,4.0,10.0,63,0.00,,,0.00,527.000000,,2013-12-30 16:53:00,
2013-12-30 12:02:00,59.0,46.0,-100.00,NW,318,4.0,10.0,63,0.00,,,0.00,527.000000,,2013-12-30 17:02:00,
2013-12-30 12:43:00,62.0,47.0,-100.00,WNW,300,5.0,10.0,58,0.00,,,0.00,576.000000,,2013-12-30 17:43:00,
2013-12-30 12:52:00,62.0,47.0,-100.00,WNW,300,5.0,10.0,58,0.00,,,0.00,576.000000,,2013-12-30 17:52:00,
2013-12-30 13:02:00,62.0,47.0,-100.00,WNW,300,5.0,10.0,58,0.00,,,0.00,576.000000,,2013-12-30 18:02:00,
2013-12-30 13:43:00,62.0,45.0,-100.00,NW,309,4.0,10.0,54,0.00,,,0.00,499.000000,,2013-12-30 18:43:00,
2013-12-30 13:52:00,62.0,45.0,-100.00,NW,309,4.0,10.0,54,0.00,,,0.00,499.000000,,2013-12-30 18:52:00,
2013-12-30 14:02:00,62.0,45.0,-100.00,NW,309,4.0,10.0,54,0.00,,,0.00,499.000000,,2013-12-30 19:02:00,
2013-12-30 14:42:00,64.0,44.0,-100.00,WNW,301,4.0,11.0,48,0.00,,,0.00,515.000000,,2013-12-30 19:42:00,
2013-12-30 14:52:00,64.0,44.0,-100.00,WNW,301,4.0,11.0,48,0.00,,,0.00,515.000000,,2013-12-30 19:52:00,
2013-12-30 15:01:00,64.0,44.0,-100.00,WNW,301,4.0,11.0,48,0.00,,,0.00,515.000000,,2013-12-30 20:01:00,
2013-12-30 15:42:00,63.0,46.0,-100.00,WNW,290,3.0,11.0,53,0.00,,,0.00,222.000000,,2013-12-30 20:42:00,
2013-12-30 15:52:00,63.0,46.0,-100.00,WNW,290,3.0,11.0,53,0.00,,,0.00,222.000000,,2013-12-30 20:52:00,
2013-12-30 16:02:00,63.0,46.0,-100.00,WNW,290,3.0,11.0,53,0.00,,,0.00,222.000000,,2013-12-30 21:02:00,
2013-12-30 16:44:00,61.0,45.0,-100.00,WNW,293,2.0,8.0,56,0.00,,,0.00,151.000000,,2013-12-30 21:44:00,
2013-12-30 16:54:00,61.0,45.0,-100.00,WNW,293,2.0,8.0,56,0.00,,,0.00,151.000000,,2013-12-30 21:54:00,
2013-12-30 17:03:00,61.0,45.0,-100.00,WNW,293,2.0,8.0,56,0.00,,,0.00,151.000000,,2013-12-30 22:03:00,
2013-12-30 17:43:00,58.0,46.0,-100.00,WSW,238,1.0,7.0,65,0.00,,,0.00,71.000000,,2013-12-30 22:43:00,
2013-12-30 17:53:00,58.0,46.0,-100.00,WSW,238,1.0,7.0,65,0.00,,,0.00,71.000000,,2013-12-30 22:53:00,
2013-12-30 18:02:00,58.0,46.0,-100.00,WSW,238,1.0,7.0,65,0.00,,,0.00,71.000000,,2013-12-30 23:02:00,
2013-12-30 18:42:00,55.0,50.0,-100.00,West,259,2.0,4.0,82,0.00,,,0.00,4.000000,,2013-12-30 23:42:00,
2013-12-30 18:53:00,55.0,50.0,-100.00,West,259,2.0,4.0,82,0.00,,,0.00,4.000000,,2013-12-30 23:53:00,
2013-12-30 19:02:00,55.0,50.0,-100.00,West,259,2.0,4.0,82,0.00,,,0.00,4.000000,,2013-12-31 00:02:00,
2013-12-30 19:22:00,53.0,50.0,-100.00,SW,226,1.0,4.0,88,0.00,,,0.00,0.000000,,2013-12-31 00:22:00,
2013-12-30 19:32:00,53.0,50.0,-100.00,SW,226,1.0,4.0,88,0.00,,,0.00,0.000000,,2013-12-31 00:32:00,
2013-12-30 19:42:00,53.0,50.0,-100.00,SW,226,1.0,4.0,88,0.00,,,0.00,0.000000,,2013-12-31 00:42:00,
2013-12-30 19:52:00,53.0,50.0,-100.00,SW,226,1.0,4.0,88,0.00,,,0.00,0.000000,,2013-12-31 00:52:00,
2013-12-30 20:02:00,53.0,50.0,-100.00,SW,226,1.0,4.0,88,0.00,,,0.00,0.000000,,2013-12-31 01:02:00,
2013-12-30 20:42:00,53.0,50.0,-100.00,North,-999,0.0,3.0,89,0.00,,,0.00,0.000000,,2013-12-31 01:42:00,
2013-12-30 20:52:00,53.0,50.0,-100.00,North,-999,0.0,3.0,89,0.00,,,0.00,0.000000,,2013-12-31 01:52:00,
2013-12-30 21:02:00,53.0,50.0,-100.00,North,-999,0.0,3.0,89,0.00,,,0.00,0.000000,,2013-12-31 02:02:00,
2013-12-30 21:42:00,52.0,49.0,-100.00,WSW,250,2.0,3.0,89,0.00,,,0.00,0.000000,,2013-12-31 02:42:00,
2013-12-30 21:53:00,52.0,49.0,-100.00,WSW,250,2.0,3.0,89,0.00,,,0.00,0.000000,,2013-12-31 02:53:00,
2013-12-30 22:02:00,52.0,49.0,-100.00,WSW,250,2.0,3.0,89,0.00,,,0.00,0.000000,,2013-12-31 03:02:00,
2013-12-30 22:43:00,52.0,49.0,-100.00,North,-999,0.0,3.0,88,0.00,,,0.00,0.000000,,2013-12-31 03:43:00,
2013-12-30 22:54:00,52.0,49.0,-100.00,North,-999,0.0,3.0,88,0.00,,,0.00,0.000000,,2013-12-31 03:54:00,
2013-12-30 23:03:00,52.0,49.0,-100.00,North,-999,0.0,3.0,88,0.00,,,0.00,0.000000,,2013-12-31 04:03:00,
2013-12-30 23:23:00,52.0,49.0,-100.00,WSW,237,1.0,2.0,91,0.00,,,0.00,0.000000,,2013-12-31 04:23:00,
2013-12-30 23:33:00,52.0,49.0,-100.00,WSW,237,1.0,2.0,91,0.00,,,0.00,0.000000,,2013-12-31 04:33:00,
2013-12-30 23:43:00,52.0,49.0,-100.00,WSW,237,1.0,2.0,91,0.00,,,0.00,0.000000,,2013-12-31 04:43:00,
2013-12-30 23:53:00,52.0,49.0,-100.00,WSW,237,1.0,2.0,91,0.00,,,0.00,0.000000,,2013-12-31 04:53:00,